Location: Newark
(14.9306°N, 3.4333°E)
Time: 13:33:09
(UTC+00:00)

N. Korean satellite - Visible Passes

Search period start: 22 October 2020 00:00
Search period end: 01 November 2020 00:00
Orbit: 453 x 505 km, 97.2° (Epoch: 22 October)

Date Brightness Start Highest point End Pass type
(mag) Time Alt. Az. Time Alt. Az. Time Alt. Az.
22 Oct 8.6 04:38:28 10° NE 04:41:29 30° E 04:44:31 10° SSE visible
23 Oct 10.2 04:14:11 10° ENE 04:15:22 11° E 04:16:34 10° ESE visible
23 Oct 10.4 17:41:40 10° SW 17:43:21 13° W 17:45:01 10° WNW visible
25 Oct 7.2 04:53:06 10° NNE 04:56:27 57° E 04:59:49 10° S visible
26 Oct 9.4 04:27:47 10° NE 04:30:21 20° E 04:32:56 10° SSE visible
28 Oct 6.3 05:07:58 10° N 05:11:23 73° W 05:14:48 10° SSW visible
29 Oct 8.2 04:42:07 10° NNE 04:45:17 35° E 04:48:29 10° SSE visible
30 Oct 10.0 04:17:22 10° ENE 04:19:10 14° E 04:20:58 10° SE visible
30 Oct 10.7 17:46:24 10° WSW 17:47:10 11° W 17:47:56 10° W visible
